FW2584 Weather Reports


Display with metric or nautical units.
time (UTC)temp
F
wind
direction
speed
MPH
gust
MPH
rain 1hr
in
rain 24hr
in
rain mn
in
humidity
%
barometer
mb
20260502130520 55 0 0.0 3.0 0.03 0.15 0.15 98 1012.1
20260502123522 56 0 0.0 2.0 0.02 0.13 0.13 98 1011.7
20260502123038 56 0 0.0 1.0 0.02 0.13 0.13 98 1011.6
20260502122525 56 0 0.0 1.0 0.02 0.13 0.13 98 1011.4
20260502122023 56 0 0.0 0.0 0.02 0.13 0.13 98 1011.5
20260502121535 56 0 0.0 1.0 0.03 0.13 0.13 98 1011.4
20260502121020 56 0 0.0 1.0 0.02 0.12 0.12 98 1011.4
20260502120526 56 0 0.0 1.0 0.02 0.12 0.12 98 1011.4
20260502115523 56 0 0.0 0.0 0.02 0.12 0.12 98 1011.5
20260502115023 56 0 0.0 0.0 0.03 0.12 0.12 98 1011.6
20260502114535 56 0 0.0 0.0 0.02 0.11 0.11 98 1011.5
20260502114022 56 0 0.0 0.0 0.02 0.11 0.11 98 1011.5
20260502113523 55 0 0.0 0.0 0.03 0.11 0.11 98 1011.5
20260502113035 55 0 0.0 0.0 0.03 0.11 0.11 98 1011.5
20260502112521 55 0 0.0 0.0 0.04 0.11 0.11 98 1011.5
20260502112022 55 0 0.0 0.0 0.04 0.11 0.11 98 1011.6
20260502111540 55 0 0.0 0.0 0.03 0.10 0.10 98 1011.6
20260502111023 55 0 0.0 0.0 0.04 0.10 0.10 98 1011.8
20260502110522 55 0 0.0 0.0 0.04 0.10 0.10 97 1011.8
20260502110035 55 0 0.0 0.0 0.04 0.10 0.10 97 1011.8
20260502105527 55 0 0.0 0.0 0.05 0.10 0.10 97 1011.9
20260502105021 55 0 0.0 0.0 0.04 0.09 0.09 97 1011.8
20260502104537 55 0 0.0 0.0 0.04 0.09 0.09 97 1012.0
20260502104038 55 0 0.0 0.0 0.03 0.08 0.08 97 1011.9
20260502103525 55 0 0.0 0.0 0.04 0.08 0.08 97 1011.8
20260502103035 55 0 0.0 0.0 0.04 0.08 0.08 97 1011.8
20260502102524 55 0 0.0 0.0 0.03 0.07 0.07 97 1011.7
20260502102022 55 0 0.0 0.0 0.04 0.07 0.07 97 1011.8
20260502101551 55 0 0.0 0.0 0.04 0.07 0.07 97 1011.9
20260502101023 55 0 0.0 0.0 0.03 0.06 0.06 97 1011.7
20260502100522 55 0 0.0 0.0 0.04 0.06 0.06 97 1011.7
20260502100103 55 0 0.0 0.0 0.04 0.06 0.06 97 1011.7
20260502091020 56 0 0.0 0.0 0.02 0.02 0.02 95 1011.7
20260502090521 56 0 0.0 0.0 0.02 0.02 0.02 95 1011.7
20260502071024 58 0 0.0 0.0 0.00 0.00 0.00 88 1011.3
20260502070523 58 0 0.0 0.0 0.00 0.00 0.00 88 1011.4
20260502070039 58 0 0.0 0.0 0.00 0.00 0.00 88 1011.4
20260502065521 58 0 0.0 0.0 0.00 0.00 0.00 88 1011.4
20260502065022 58 0 0.0 0.0 0.00 0.00 0.00 88 1011.5
20260502064535 58 0 0.0 0.0 0.00 0.00 0.00 88 1011.4
20260502064025 58 0 0.0 0.0 0.00 0.00 0.00 88 1011.5
20260502063523 58 0 0.0 0.0 0.00 0.00 0.00 88 1011.4
20260502063034 58 0 0.0 0.0 0.00 0.00 0.00 88 1011.3
20260502062522 58 0 0.0 0.0 0.00 0.00 0.00 88 1011.3
20260502062024 58 0 0.0 0.0 0.00 0.00 0.00 87 1011.5
20260502061540 58 0 0.0 0.0 0.00 0.00 0.00 87 1011.6
20260502061021 58 0 0.0 0.0 0.00 0.00 0.00 87 1011.7
20260502060523 58 0 0.0 0.0 0.00 0.00 0.00 87 1011.9
20260502060033 58 0 0.0 0.0 0.00 0.00 0.00 87 1012.0
20260502055521 58 0 0.0 0.0 0.00 0.02 0.00 88 1012.0
20260502055022 58 0 0.0 0.0 0.00 0.02 0.00 88 1011.9
20260502054534 58 0 0.0 0.0 0.00 0.02 0.00 88 1012.1
20260502054026 58 0 0.0 0.0 0.00 0.02 0.00 87 1012.2
20260502053523 58 0 0.0 0.0 0.00 0.02 0.00 88 1012.1
20260502053034 58 0 0.0 0.0 0.00 0.02 0.00 87 1012.1
20260502052522 58 0 0.0 0.0 0.00 0.02 0.00 88 1012.2
20260502052022 58 0 0.0 0.0 0.00 0.02 0.00 87 1012.2
20260502051534 58 0 0.0 0.0 0.00 0.02 0.00 88 1012.3
20260502051025 58 0 0.0 0.0 0.00 0.02 0.00 87 1012.2
20260502050534 58 0 0.0 0.0 0.00 0.02 0.00 88 1012.3
20260502050036 58 0 0.0 0.0 0.00 0.02 0.00 88 1012.4
20260502045522 58 0 0.0 0.0 0.00 0.02 0.00 88 1012.5
20260502045023 58 0 0.0 0.0 0.00 0.02 0.00 88 1012.5
20260502044534 58 0 0.0 0.0 0.00 0.02 0.00 88 1012.4
20260502044023 58 0 0.0 0.0 0.00 0.02 0.00 88 1012.3
20260502043522 58 0 0.0 0.0 0.00 0.02 0.00 88 1012.4
20260502043039 58 0 0.0 0.0 0.00 0.02 0.00 87 1012.5
20260502042522 59 0 0.0 0.0 0.00 0.02 0.00 87 1012.7
20260502042022 59 0 0.0 0.0 0.00 0.02 0.00 87 1012.7
20260502041535 59 0 0.0 0.0 0.00 0.02 0.00 86 1012.7
20260502041021 59 0 0.0 0.0 0.00 0.02 0.00 86 1012.6
20260502040523 59 0 0.0 0.0 0.00 0.02 0.00 86 1012.6
20260502040038 59 0 0.0 0.0 0.00 0.02 0.00 87 1012.7
20260502035520 59 0 0.0 0.0 0.00 0.02 0.02 86 1012.8
20260502035023 59 0 0.0 0.0 0.00 0.02 0.02 86 1012.8
20260502034536 59 0 0.0 0.0 0.00 0.02 0.02 87 1012.8
20260502034025 59 0 0.0 0.0 0.00 0.02 0.02 87 1012.9
20260502033519 59 0 0.0 0.0 0.00 0.02 0.02 87 1012.6
20260502033034 59 0 0.0 0.0 0.00 0.02 0.02 87 1012.9
20260502032522 59 0 0.0 0.0 0.00 0.02 0.02 87 1012.9
20260502032026 59 0 0.0 0.0 0.00 0.02 0.02 88 1012.8
20260502031539 59 0 0.0 0.0 0.00 0.02 0.02 88 1012.7
20260502031022 59 0 0.0 0.0 0.00 0.02 0.02 88 1012.7
20260502030522 59 0 0.0 0.0 0.00 0.02 0.02 88 1012.7
20260502030034 59 0 0.0 0.0 0.00 0.02 0.02 88 1012.7
20260502025523 59 0 0.0 0.0 0.00 0.02 0.02 88 1012.8
20260502025023 59 0 0.0 0.0 0.00 0.02 0.02 88 1012.9
20260502024533 59 0 0.0 0.0 0.00 0.02 0.02 89 1012.9
20260502024024 59 0 0.0 0.0 0.00 0.02 0.02 88 1012.9
20260502023523 59 0 0.0 0.0 0.00 0.02 0.02 88 1013.0
20260502023036 59 0 0.0 0.0 0.00 0.02 0.02 88 1012.9
20260502022520 59 0 0.0 0.0 0.00 0.02 0.02 88 1012.9
20260502022022 59 0 0.0 0.0 0.00 0.02 0.02 88 1012.8
20260502021535 59 0 0.0 0.0 0.00 0.02 0.02 89 1012.7
20260502021026 59 0 0.0 0.0 0.00 0.02 0.02 89 1012.6
20260502020523 59 0 0.0 0.0 0.00 0.02 0.02 89 1012.8
20260502020041 59 0 0.0 0.0 0.00 0.02 0.02 89 1012.7
20260502015523 59 0 0.0 0.0 0.00 0.02 0.02 89 1012.8
20260502015023 59 0 0.0 0.0 0.00 0.02 0.02 89 1012.7
20260502014534 59 0 0.0 0.0 0.00 0.02 0.02 89 1012.7
20260502014023 59 0 0.0 0.0 0.00 0.02 0.02 88 1012.6
20260502013523 59 0 0.0 0.0 0.00 0.02 0.02 88 1012.5
20260502013033 59 0 0.0 0.0 0.00 0.02 0.02 88 1012.5
20260502012523 59 0 0.0 0.0 0.00 0.02 0.02 88 1012.7
20260502012023 59 0 0.0 0.0 0.00 0.02 0.02 88 1012.5
20260502011540 59 0 0.0 0.0 0.00 0.02 0.02 87 1012.4
20260502011021 59 0 0.0 0.0 0.00 0.02 0.02 87 1012.7
20260502010523 60 0 0.0 0.0 0.00 0.02 0.02 87 1012.6
20260502010038 60 0 0.0 0.0 0.00 0.02 0.02 86 1012.6
20260502005523 60 0 0.0 0.0 0.00 0.02 0.02 86 1012.6
20260502005024 60 0 0.0 0.0 0.00 0.02 0.02 85 1012.4
20260502004536 60 0 0.0 0.0 0.00 0.02 0.02 85 1012.4
20260502004023 60 0 0.0 0.0 0.00 0.02 0.02 85 1012.1
20260502003522 60 0 0.0 0.0 0.00 0.02 0.02 83 1012.2
20260502003033 60 0 0.0 0.0 0.00 0.02 0.02 83 1012.1
20260502002522 61 0 0.0 0.0 0.00 0.02 0.02 83 1012.0
20260502002023 61 0 0.0 0.0 0.00 0.02 0.02 83 1012.0
20260502001535 61 0 0.0 0.0 0.00 0.02 0.02 83 1011.9
20260502001024 61 0 0.0 0.0 0.00 0.02 0.02 82 1011.9
20260502000523 61 0 0.0 0.0 0.00 0.02 0.02 82 1011.8
20260502000041 61 0 0.0 0.0 0.00 0.02 0.02 82 1011.6
20260501235523 61 0 0.0 0.0 0.00 0.02 0.02 80 1011.6
20260501235023 62 0 0.0 0.0 0.00 0.02 0.02 81 1011.7
20260501234536 62 0 0.0 0.0 0.00 0.02 0.02 81 1011.7
20260501234026 62 0 0.0 0.0 0.00 0.02 0.02 80 1011.8
20260501233522 62 0 0.0 0.0 0.00 0.02 0.02 79 1011.9
20260501233035 62 0 0.0 0.0 0.00 0.02 0.02 79 1011.9
20260501232522 63 0 0.0 0.0 0.00 0.02 0.02 78 1011.8
20260501232027 63 0 0.0 0.0 0.00 0.02 0.02 78 1011.9
20260501231540 63 0 0.0 0.0 0.00 0.02 0.02 79 1011.8
20260501231021 63 0 0.0 0.0 0.00 0.02 0.02 76 1011.9
20260501230522 63 0 0.0 0.0 0.00 0.02 0.02 78 1012.0
20260501230038 63 0 0.0 0.0 0.00 0.02 0.02 77 1012.0
20260501225522 64 0 0.0 0.0 0.00 0.02 0.02 75 1012.0
20260501225021 64 0 0.0 0.0 0.00 0.02 0.02 74 1012.2
20260501224539 64 0 0.0 0.0 0.00 0.02 0.02 75 1012.4
20260501224023 64 0 0.0 0.0 0.00 0.02 0.02 76 1012.2
20260501223523 64 0 0.0 0.0 0.00 0.02 0.02 74 1012.2
20260501223035 64 0 0.0 0.0 0.00 0.02 0.02 73 1012.2
20260501222524 65 0 0.0 0.0 0.00 0.02 0.02 72 1012.3
20260501222022 65 0 0.0 0.0 0.00 0.02 0.02 70 1012.2
20260501221536 65 0 0.0 0.0 0.00 0.02 0.02 71 1012.2
20260501221025 65 0 0.0 0.0 0.00 0.02 0.02 70 1012.4
20260501220522 65 0 0.0 0.0 0.00 0.02 0.02 71 1012.6
20260501220035 65 0 0.0 0.0 0.00 0.02 0.02 71 1012.9
20260501215524 65 0 0.0 0.0 0.00 0.02 0.02 72 1012.8
20260501215022 65 0 0.0 0.0 0.00 0.02 0.02 73 1012.7
20260501214544 65 0 0.0 0.0 0.00 0.02 0.02 70 1012.7
20260501214023 65 0 0.0 0.0 0.00 0.02 0.02 69 1012.7
20260501213523 65 0 0.0 0.0 0.00 0.02 0.02 68 1012.7
20260501213034 65 0 0.0 0.0 0.00 0.02 0.02 65 1012.7
20260501212521 66 0 0.0 0.0 0.00 0.02 0.02 66 1012.6
20260501212021 65 0 0.0 0.0 0.00 0.02 0.02 69 1012.7
20260501211540 65 0 0.0 0.0 0.00 0.02 0.02 68 1012.7
20260501211023 65 0 0.0 2.0 0.00 0.02 0.02 71 1012.5
20260501210520 65 0 0.0 2.0 0.00 0.02 0.02 68 1012.5
20260501210039 65 0 0.0 2.0 0.00 0.02 0.02 66 1012.5
20260501205523 65 0 0.0 0.0 0.00 0.02 0.02 65 1012.5
20260501205024 65 0 0.0 0.0 0.00 0.02 0.02 65 1012.5
20260501204607 66 0 0.0 1.0 0.00 0.02 0.02 66 1012.6
20260501204021 66 0 0.0 1.0 0.00 0.02 0.02 66 1012.5
20260501203521 65 0 0.0 0.0 0.00 0.02 0.02 70 1012.5
20260501203040 65 0 0.0 0.0 0.00 0.02 0.02 67 1012.8
20260501202525 65 0 0.0 0.0 0.00 0.02 0.02 65 1012.7
20260501202023 65 0 0.0 0.0 0.00 0.02 0.02 67 1012.7
20260501201539 65 0 0.0 1.0 0.00 0.02 0.02 66 1012.8
20260501201021 65 0 0.0 1.0 0.00 0.02 0.02 65 1013.0
20260501200523 66 0 0.0 3.0 0.00 0.02 0.02 66 1013.1
20260501200041 65 0 0.0 3.0 0.00 0.02 0.02 65 1013.1
20260501195521 65 0 0.0 1.0 0.00 0.02 0.02 65 1013.3
20260501195023 65 0 0.0 1.0 0.00 0.02 0.02 64 1013.2
20260501194533 65 0 0.0 1.0 0.00 0.02 0.02 65 1013.3
20260501194026 65 0 0.0 0.0 0.00 0.02 0.02 64 1013.3
20260501193521 65 0 0.0 0.0 0.00 0.02 0.02 65 1013.5
20260501193034 65 0 0.0 1.0 0.00 0.02 0.02 66 1013.5
20260501192525 65 0 0.0 1.0 0.00 0.02 0.02 64 1013.6
20260501192021 64 0 0.0 2.0 0.00 0.02 0.02 63 1013.7
20260501191539 65 0 0.0 2.0 0.00 0.02 0.02 64 1013.8
20260501191025 64 0 0.0 1.0 0.00 0.02 0.02 63 1013.9
20260501190524 64 0 0.0 1.0 0.00 0.02 0.02 62 1014.1
20260501190038 64 0 0.0 0.0 0.00 0.02 0.02 65 1014.1
20260501185523 64 0 0.0 1.0 0.00 0.02 0.02 66 1014.3
20260501185025 64 0 0.0 1.0 0.00 0.02 0.02 65 1014.2
20260501184533 64 0 0.0 1.0 0.00 0.02 0.02 65 1014.2
20260501184024 64 0 0.0 1.0 0.00 0.02 0.02 62 1014.3
20260501183522 64 0 0.0 4.0 0.00 0.02 0.02 63 1014.4
20260501183035 64 0 0.0 5.0 0.00 0.02 0.02 64 1014.3
20260501182521 64 0 0.0 5.0 0.00 0.02 0.02 62 1014.4
20260501182023 63 0 0.0 2.0 0.00 0.02 0.02 64 1014.3
20260501181539 62 0 0.0 2.0 0.00 0.02 0.02 66 1014.5
20260501181025 62 0 0.0 0.0 0.00 0.02 0.02 67 1014.5
20260501180523 61 0 0.0 1.0 0.00 0.02 0.02 66 1014.4
20260501180040 61 0 0.0 1.0 0.00 0.02 0.02 67 1014.3
20260501175524 61 0 0.0 0.0 0.00 0.02 0.02 65 1014.4
20260501175022 61 0 0.0 0.0 0.00 0.02 0.02 66 1014.4
20260501174541 61 0 0.0 0.0 0.00 0.02 0.02 65 1014.5
20260501174023 61 0 0.0 0.0 0.00 0.02 0.02 65 1014.5
20260501173521 61 0 0.0 0.0 0.00 0.02 0.02 63 1014.5
20260501173037 61 0 0.0 2.0 0.00 0.02 0.02 64 1014.4
20260501172523 61 0 0.0 2.0 0.00 0.02 0.02 62 1014.6
20260501172023 61 0 0.0 2.0 0.00 0.02 0.02 62 1014.7
20260501171535 61 0 0.0 1.0 0.00 0.02 0.02 62 1014.7
20260501171022 61 0 0.0 1.0 0.00 0.02 0.02 62 1014.7
20260501170522 61 0 0.0 1.0 0.00 0.02 0.02 61 1014.9
20260501170044 61 0 0.0 1.0 0.00 0.02 0.02 66 1014.9
20260501165527 61 0 0.0 1.0 0.00 0.02 0.02 64 1014.9
20260501165023 61 0 0.0 4.0 0.00 0.02 0.02 63 1014.8
20260501164548 61 0 0.0 4.0 0.00 0.02 0.02 63 1014.7
20260501164022 61 182 0.0 4.0 0.00 0.02 0.02 64 1014.8
20260501163523 61 168 0.0 3.0 0.00 0.02 0.02 62 1014.9
20260501163042 61 165 1.0 7.0 0.00 0.02 0.02 62 1015.0
20260501162523 61 218 1.0 7.0 0.00 0.02 0.02 62 1015.0
20260501162027 61 145 0.0 3.0 0.00 0.02 0.02 63 1015.2
20260501161532 60 0 0.0 5.0 0.00 0.02 0.02 62 1015.3
20260501161022 60 328 0.0 5.0 0.00 0.02 0.02 62 1015.3
20260501160520 60 152 1.0 5.0 0.00 0.02 0.02 63 1015.4
20260501160035 60 93 1.0 3.0 0.00 0.02 0.02 63 1015.4
20260501155522 59 90 0.0 3.0 0.00 0.02 0.02 64 1015.4
20260501155023 59 69 0.0 4.0 0.00 0.02 0.02 66 1015.3
20260501154540 59 25 0.0 4.0 0.00 0.02 0.02 68 1015.3
20260501154022 58 165 0.0 4.0 0.00 0.02 0.02 68 1015.3
20260501153522 58 0 0.0 3.0 0.00 0.02 0.02 69 1015.4
20260501153039 58 51 0.0 2.0 0.00 0.02 0.02 65 1015.5
20260501152525 58 0 0.0 3.0 0.00 0.02 0.02 67 1015.4
20260501152024 58 0 0.0 3.0 0.00 0.02 0.02 66 1015.4
20260501151536 58 0 0.0 2.0 0.00 0.02 0.02 67 1015.6
20260501151022 58 0 0.0 2.0 0.00 0.02 0.02 68 1015.5
20260501150524 58 0 0.0 1.0 0.00 0.02 0.02 70 1015.6
20260501150036 58 0 0.0 2.0 0.00 0.02 0.02 68 1015.5
20260501145524 58 0 0.0 2.0 0.00 0.04 0.02 68 1015.5
20260501145025 58 136 0.0 3.0 0.00 0.04 0.02 68 1015.4
20260501144540 59 0 0.0 3.0 0.00 0.04 0.02 67 1015.5
20260501144022 59 0 0.0 1.0 0.00 0.04 0.02 66 1015.3
20260501143526 58 0 0.0 1.0 0.00 0.04 0.02 66 1015.3
20260501143039 58 0 0.0 1.0 0.00 0.04 0.02 66 1015.2
20260501142522 58 0 0.0 2.0 0.00 0.04 0.02 66 1015.3
20260501142021 58 0 0.0 3.0 0.00 0.04 0.02 63 1015.2
20260501141537 58 130 0.0 3.0 0.00 0.04 0.02 66 1015.0
20260501141022 59 0 0.0 2.0 0.00 0.04 0.02 66 1015.0
20260501140521 59 0 0.0 2.0 0.00 0.04 0.02 68 1015.0
20260501140035 58 0 0.0 0.0 0.00 0.04 0.02 68 1014.8
20260501135523 58 0 0.0 0.0 0.00 0.08 0.02 70 1014.9